Regional Weather Roundup
Issued by NWS

Home | Current Version | Previous Version | Text Only | Print | Product List | Glossary Off
Versions: 1 2 3 4 5 6 7 8 9 10 11 12 13 14 15 16 17 18 19 20 21 22 23 24 25 26 27 28 29 30 31 32 33 34 35 36 37 38 39 40 41 42 43 44 45 46 47 48 49 50

000
ASUS43 KIND 201409
RWRIN

WEATHER ROUNDUP FOR INDIANA
NATIONAL WEATHER SERVICE INDIANAPOLIS IN
1000 AM EDT FRI OCT 20 2017

NOTE: "FAIR" INDICATES FEW OR NO CLOUDS BELOW 12,000 FEET WITH NO
SIGNIFICANT WEATHER AND/OR OBSTRUCTIONS TO VISIBILITY.

* - STATION DOES NOT REPORT WEATHER SUCH AS PRECIPITATION OR FOG.

+ - STATION NOT QUALITY CONTROLLED BY THE NATIONAL WEATHER SERVICE.
    USE DATA WITH CAUTION...ESPECIALLY DEWPOINT AND RELATIVE
    HUMIDITY OBSERVATIONS.

INZ001>003-010>013-019-020-201500-
NORTHWEST INDIANA

CITY           SKY/WX    TMP DP  RH WIND       PRES   REMARKS
GARY /AIRPORT/ MOSUNNY   61  50  67 S8        30.21R
KNOX *+        SUNNY     59  50  72 S6        30.23S
LA PORTE +     SUNNY     56  51  82 S3        30.24R
MICHIGAN CITY+ SUNNY     59  50  72 S6        30.22S
MONTICELLO +   SUNNY     58  52  80 S6        30.25R
RENSSELAER +   SUNNY     59  48  67 S5        30.24R
VALPARAISO     SUNNY     58  51  78 S8        30.23R

$$

LMZ046-743>745-201500-
SOUTHERN LAKE MICHIGAN

STATION/POSITION TIME  TEMP    WIND        PRES    WAVE
                       AIR SEA DIR/SP/G            HT
                 (UTC) (F)     (DEG/KT/KT) (MB)    (FT)
BURNS HARBOR     1340   59     180/ 12/ 16 1023.0R
MICHIGAN CITY    1340   60     150/ 12/ 16   N/A
5NW MICH CITY    1400   59 58  190/ 12/ 14   N/A     1

$$

INZ004-005-014>016-021>024-201500-
NORTH CENTRAL INDIANA

CITY           SKY/WX    TMP DP  RH WIND       PRES   REMARKS
ELKHART        SUNNY     55  48  76 CALM      30.24S
GOSHEN         SUNNY     57  48  72 S7        30.25S
LOGANSPORT +   SUNNY     57  52  82 S3        30.27R
PERU/GRISSOM   SUNNY     59  55  85 S6        30.26R
SOUTH BEND     SUNNY     57  50  77 S3        30.25R
WARSAW +       SUNNY     57  52  82 CALM      30.26S

$$

INZ006>009-017-018-025>027-201500-
NORTHEAST INDIANA

CITY           SKY/WX    TMP DP  RH WIND       PRES   REMARKS
AUBURN +       SUNNY     55  46  71 CALM      30.28S
FORT WAYNE     MOSUNNY   55  50  83 S3        30.28S
HUNTINGTON +   SUNNY     56  53  90 CALM      30.28R
KENDALLVILLE + SUNNY     56  46  67 SE6       30.28R

$$

INZ028-029-035-036-043>045-051>053-201500-
WEST CENTRAL INDIANA

CITY           SKY/WX    TMP DP  RH WIND       PRES   REMARKS
CRAWFORDSVL +  SUNNY     57  54  88 S5        30.27R
GREENCASTLE +  SUNNY     55  52  88 S3        30.29R
LAFAYETTE      SUNNY     59  54  83 S3        30.25R
TERRE HAUTE    SUNNY     57  52  83 S5        30.28R

$$

INZ030>032-037>040-046>048-054>057-064-065-201500-
CENTRAL INDIANA

CITY           SKY/WX    TMP DP  RH WIND       PRES   REMARKS
ANDERSON       SUNNY     59  54  82 S6        30.29R
CP ATTERBURY + SUNNY     54  54 100 CALM      30.31R
COLUMBUS       SUNNY     54  50  87 CALM      30.30S
FISHERS *+     SUNNY     59  59 100 CALM      30.29R
FRANKFORT +    SUNNY     62  55  75 S5        30.28R
GREENWOOD *+   SUNNY     59  55  85 SE3       30.30R
INDIANAPOLIS   MOSUNNY   57  52  83 SE6       30.29R
-EAGLE CREEK   MOSUNNY   57  52  83 MISG      30.28R
KOKOMO +       SUNNY     58  53  84 S7        30.28R
MARION +       SUNNY     57  54  88 S5        30.29R
MT COMFORT *+  SUNNY     57  55  94 CALM      30.29S
SHELBYVILLE    SUNNY     59  52  77 S6        30.29R
ZIONSVILLE +   SUNNY     57  53  85 S3        30.29R

$$

INZ033-034-041-042-049-050-058-059-201500-
EAST CENTRAL INDIANA

CITY           SKY/WX    TMP DP  RH WIND       PRES   REMARKS
MUNCIE         SUNNY     62  53  72 SW5       30.29R

$$

INZ060-061-067>069-081>083-085>088-201500-
SOUTHWEST INDIANA

CITY           SKY/WX    TMP DP  RH WIND       PRES   REMARKS
EVANSVILLE     NOT AVBL
HUNTINGBURG +  SUNNY     58  53  84 SE5       30.31R
WASHINGTON +   SUNNY     57  53  84 SE6       30.29R

$$

INZ062-063-066-070>080-084-089>092-201500-
SOUTH CENTRAL AND SOUTHEAST INDIANA

CITY           SKY/WX    TMP DP  RH WIND       PRES   REMARKS
BEDFORD +      SUNNY     57  52  82 CALM      30.30R
BLOOMINGTON    SUNNY     58  51  78 SE3       30.29R
MADISON *+     SUNNY     55  54  94 CALM      30.34R
NORTH VERNON + SUNNY     55  52  88 CALM      30.32R
SEYMOUR +      SUNNY     57  55  94 CALM      30.31R

$$





USA.gov is the U.S. government's official web portal to all federal, state and local government web resources and services.